| time (UTC) | temp C | wind direction | speed KPH | gust KPH | rain 1hr cm | rain 24hr cm | rain mn cm | humidity % | barometer mb |
| 20260502163930 | 11 | 212 | 8.0 | 27.4 | 0.00 | 0.00 | 0.00 | 47 | 991.8 |
| 20260502163338 | 11 | 226 | 6.4 | 32.2 | 0.00 | 0.00 | 0.00 | 49 | 991.8 |
| 20260502162735 | 10 | 344 | 4.8 | 35.4 | 0.00 | 0.00 | 0.00 | 49 | 992.2 |
| 20260502162134 | 10 | 351 | 12.9 | 19.3 | 0.00 | 0.00 | 0.00 | 50 | 991.8 |
| 20260502161514 | 11 | 215 | 12.9 | 19.3 | 0.00 | 0.00 | 0.00 | 48 | 992.2 |
| 20260502152129 | 10 | 52 | 9.7 | 16.1 | 0.00 | 0.00 | 0.00 | 48 | 992.2 |
| 20260502151544 | 10 | 235 | 0.0 | 16.1 | 0.00 | 0.00 | 0.00 | 51 | 992.2 |
| 20260502150917 | 10 | 207 | 16.1 | 27.4 | 0.00 | 0.00 | 0.00 | 48 | 991.8 |
| 20260502150345 | 10 | 199 | 4.8 | 19.3 | 0.00 | 0.00 | 0.00 | 50 | 991.8 |
| 20260502130324 | 5 | 213 | 4.8 | 9.7 | 0.00 | 0.00 | 0.00 | 96 | 992.2 |
| 20260502123319 | 3 | 25 | 1.6 | 4.8 | 0.00 | 0.00 | 0.00 | 99 | 991.8 |
| 20260502122727 | 2 | 344 | 3.2 | 8.0 | 0.00 | 0.00 | 0.00 | 99 | 991.8 |
| 20260502122144 | 2 | 19 | 3.2 | 4.8 | 0.00 | 0.00 | 0.00 | 99 | 992.2 |
| 20260502121540 | 2 | 41 | 0.0 | 4.8 | 0.00 | 0.00 | 0.00 | 99 | 992.2 |
| 20260502120923 | 2 | 36 | 1.6 | 4.8 | 0.00 | 0.00 | 0.00 | 99 | 992.2 |
| 20260502115717 | 1 | 30 | 3.2 | 4.8 | 0.00 | 0.00 | 0.00 | 99 | 991.8 |
| 20260502114526 | 0 | 25 | 0.0 | 4.8 | 0.00 | 0.00 | 0.00 | 99 | 992.2 |
| 20260502113932 | 1 | 220 | 0.0 | 6.4 | 0.00 | 0.00 | 0.00 | 99 | 991.8 |
| 20260502113336 | 0 | 86 | 0.0 | 3.2 | 0.00 | 0.00 | 0.00 | 99 | 992.2 |
| 20260502112731 | 0 | 37 | 1.6 | 4.8 | 0.00 | 0.00 | 0.00 | 99 | 991.8 |
| 20260502111521 | 0 | 73 | 1.6 | 4.8 | 0.00 | 0.00 | 0.00 | 99 | 991.8 |
| 20260502110923 | 0 | 85 | 0.0 | 3.2 | 0.00 | 0.00 | 0.00 | 99 | 991.8 |
| 20260502105718 | -1 | 266 | 0.0 | 3.2 | 0.00 | 0.00 | 0.00 | 99 | 991.8 |
| 20260502105151 | -1 | 142 | 0.0 | 3.2 | 0.00 | 0.00 | 0.00 | 99 | 991.8 |
| 20260502104512 | -1 | 341 | 0.0 | 3.2 | 0.00 | 0.00 | 0.00 | 99 | 991.8 |
| 20260502103944 | 0 | 145 | 3.2 | 6.4 | 0.00 | 0.00 | 0.00 | 99 | 991.8 |
| 20260502103330 | -1 | 173 | 1.6 | 4.8 | 0.00 | 0.00 | 0.00 | 99 | 991.8 |
| 20260502102722 | 0 | 92 | 0.0 | 3.2 | 0.00 | 0.00 | 0.00 | 99 | 991.8 |
| 20260502102128 | 0 | 150 | 3.2 | 3.2 | 0.00 | 0.00 | 0.00 | 99 | 991.8 |
| 20260502100935 | 0 | 140 | 0.0 | 3.2 | 0.00 | 0.00 | 0.00 | 99 | 991.5 |
| 20260502100347 | 0 | 76 | 0.0 | 3.2 | 0.00 | 0.00 | 0.00 | 99 | 991.8 |
| 20260502090948 | 0 | 171 | 0.0 | 4.8 | 0.00 | 0.00 | 0.00 | 99 | 992.2 |
| 20260502090333 | 0 | 116 | 1.6 | 3.2 | 0.00 | 0.00 | 0.00 | 99 | 992.2 |
| 20260502071526 | 1 | 154 | 0.0 | 3.2 | 0.00 | 0.00 | 0.00 | 99 | 991.1 |
| 20260502070913 | 1 | 138 | 0.0 | 3.2 | 0.00 | 0.00 | 0.00 | 99 | 991.1 |
| 20260502070337 | 1 | 181 | 1.6 | 6.4 | 0.00 | 0.00 | 0.00 | 99 | 991.1 |
| 20260502065712 | 1 | 174 | 3.2 | 3.2 | 0.00 | 0.00 | 0.00 | 99 | 991.1 |
| 20260502065141 | 1 | 150 | 1.6 | 4.8 | 0.00 | 0.00 | 0.00 | 99 | 991.5 |
| 20260502063913 | 1 | 144 | 1.6 | 3.2 | 0.00 | 0.00 | 0.00 | 99 | 991.8 |
| 20260502063326 | 1 | 182 | 1.6 | 6.4 | 0.00 | 0.00 | 0.00 | 99 | 991.5 |
| 20260502062727 | 2 | 184 | 1.6 | 4.8 | 0.00 | 0.00 | 0.00 | 99 | 991.8 |
| 20260502062149 | 2 | 110 | 1.6 | 3.2 | 0.00 | 0.00 | 0.00 | 99 | 991.8 |
| 20260502061532 | 2 | 78 | 0.0 | 4.8 | 0.00 | 0.00 | 0.00 | 99 | 991.8 |
| 20260502060950 | 2 | 158 | 0.0 | 3.2 | 0.00 | 0.00 | 0.00 | 99 | 991.8 |
| 20260502060338 | 2 | 146 | 3.2 | 3.2 | 0.00 | 0.00 | 0.00 | 99 | 991.5 |
| 20260502055713 | 2 | 178 | 1.6 | 3.2 | 0.00 | 0.00 | 0.00 | 99 | 991.8 |
| 20260502055137 | 2 | 193 | 1.6 | 3.2 | 0.00 | 0.00 | 0.00 | 99 | 991.8 |
| 20260502054539 | 2 | 197 | 1.6 | 4.8 | 0.00 | 0.00 | 0.00 | 99 | 991.8 |
| 20260502053936 | 2 | 129 | 3.2 | 3.2 | 0.00 | 0.00 | 0.00 | 99 | 991.8 |
| 20260502053342 | 2 | 141 | 1.6 | 3.2 | 0.00 | 0.00 | 0.00 | 99 | 991.8 |
| 20260502052742 | 2 | 200 | 1.6 | 3.2 | 0.00 | 0.00 | 0.00 | 99 | 991.8 |
| 20260502052136 | 2 | 185 | 1.6 | 3.2 | 0.00 | 0.00 | 0.00 | 99 | 992.2 |
| 20260502051537 | 2 | 192 | 1.6 | 3.2 | 0.00 | 0.00 | 0.00 | 99 | 991.8 |
| 20260502050947 | 3 | 214 | 0.0 | 3.2 | 0.00 | 0.00 | 0.00 | 99 | 992.2 |
| 20260502045713 | 3 | 171 | 0.0 | 3.2 | 0.00 | 0.00 | 0.00 | 99 | 992.2 |
| 20260502045152 | 3 | 143 | 0.0 | 3.2 | 0.00 | 0.00 | 0.00 | 99 | 991.8 |
| 20260502043951 | 4 | 167 | 0.0 | 3.2 | 0.00 | 0.00 | 0.00 | 99 | 992.2 |
| 20260502042725 | 4 | 157 | 1.6 | 3.2 | 0.00 | 0.00 | 0.00 | 99 | 992.2 |
| 20260502042129 | 4 | 158 | 1.6 | 3.2 | 0.00 | 0.00 | 0.00 | 99 | 992.2 |
| 20260502041554 | 4 | 141 | 0.0 | 3.2 | 0.00 | 0.00 | 0.00 | 99 | 992.2 |
| 20260502040935 | 4 | 100 | 0.0 | 3.2 | 0.00 | 0.00 | 0.00 | 99 | 992.2 |
| 20260502040353 | 4 | 206 | 0.0 | 3.2 | 0.00 | 0.00 | 0.00 | 99 | 991.8 |
| 20260502035735 | 4 | 154 | 1.6 | 4.8 | 0.00 | 0.00 | 0.10 | 99 | 992.2 |
| 20260502033952 | 3 | 29 | 0.0 | 3.2 | 0.00 | 0.00 | 0.10 | 99 | 992.5 |
| 20260502033341 | 3 | 80 | 0.0 | 3.2 | 0.00 | 0.00 | 0.10 | 99 | 992.2 |
| 20260502032121 | 4 | 185 | 0.0 | 3.2 | 0.00 | 0.00 | 0.10 | 99 | 992.2 |
| 20260502031527 | 3 | 91 | 0.0 | 3.2 | 0.00 | 0.00 | 0.10 | 99 | 992.2 |
| 20260502030936 | 3 | 102 | 1.6 | 3.2 | 0.00 | 0.00 | 0.10 | 99 | 992.2 |
| 20260502030329 | 3 | 151 | 1.6 | 3.2 | 0.00 | 0.00 | 0.10 | 99 | 992.2 |
| 20260502025726 | 3 | 182 | 0.0 | 3.2 | 0.00 | 0.00 | 0.10 | 99 | 992.2 |
| 20260502025148 | 3 | 89 | 0.0 | 3.2 | 0.00 | 0.00 | 0.10 | 99 | 992.2 |
| 20260502024553 | 3 | 149 | 3.2 | 3.2 | 0.00 | 0.00 | 0.10 | 99 | 992.2 |
| 20260502023949 | 3 | 178 | 3.2 | 3.2 | 0.00 | 0.00 | 0.10 | 99 | 991.8 |
| 20260502023327 | 3 | 158 | 1.6 | 3.2 | 0.00 | 0.00 | 0.10 | 99 | 991.8 |
| 20260502022736 | 3 | 89 | 0.0 | 4.8 | 0.00 | 0.00 | 0.10 | 99 | 992.2 |
| 20260502022149 | 3 | 158 | 1.6 | 3.2 | 0.00 | 0.00 | 0.10 | 99 | 991.8 |
| 20260502021524 | 3 | 162 | 1.6 | 3.2 | 0.00 | 0.00 | 0.10 | 99 | 991.5 |
| 20260502020917 | 3 | 226 | 0.0 | 3.2 | 0.00 | 0.00 | 0.10 | 98 | 991.5 |
| 20260502020338 | 3 | 215 | 0.0 | 3.2 | 0.00 | 0.00 | 0.10 | 98 | 991.5 |
| 20260502015114 | 3 | 151 | 0.0 | 3.2 | 0.00 | 0.00 | 0.10 | 98 | 991.5 |
| 20260502014554 | 3 | 197 | 3.2 | 4.8 | 0.00 | 0.00 | 0.10 | 98 | 991.5 |
| 20260502013953 | 3 | 224 | 1.6 | 3.2 | 0.00 | 0.00 | 0.10 | 97 | 991.5 |
| 20260502013312 | 4 | 20 | 0.0 | 3.2 | 0.00 | 0.00 | 0.10 | 97 | 991.5 |
| 20260502012741 | 4 | 188 | 0.0 | 3.2 | 0.00 | 0.00 | 0.10 | 97 | 991.1 |
| 20260502012136 | 4 | 215 | 0.0 | 3.2 | 0.00 | 0.00 | 0.10 | 96 | 991.1 |
| 20260502011521 | 5 | 178 | 0.0 | 3.2 | 0.00 | 0.00 | 0.10 | 96 | 990.8 |
| 20260502010935 | 5 | 86 | 0.0 | 4.8 | 0.00 | 0.00 | 0.10 | 95 | 990.8 |
| 20260502010317 | 5 | 187 | 1.6 | 3.2 | 0.00 | 0.00 | 0.10 | 94 | 990.5 |
| 20260502005749 | 5 | 193 | 1.6 | 3.2 | 0.00 | 0.00 | 0.10 | 93 | 990.5 |
| 20260502005118 | 5 | 190 | 0.0 | 3.2 | 0.00 | 0.00 | 0.10 | 92 | 990.1 |
| 20260502004519 | 6 | 255 | 0.0 | 3.2 | 0.00 | 0.00 | 0.10 | 93 | 990.1 |
| 20260502003914 | 6 | 61 | 0.0 | 3.2 | 0.00 | 0.00 | 0.10 | 92 | 990.1 |
| 20260502003311 | 6 | 196 | 0.0 | 3.2 | 0.00 | 0.00 | 0.10 | 91 | 990.1 |
| 20260502002144 | 6 | 204 | 3.2 | 4.8 | 0.00 | 0.00 | 0.10 | 88 | 990.1 |
| 20260502001533 | 7 | 179 | 1.6 | 6.4 | 0.00 | 0.00 | 0.10 | 86 | 990.1 |
| 20260502000923 | 7 | 329 | 0.0 | 3.2 | 0.00 | 0.00 | 0.10 | 85 | 990.1 |
| 20260502000354 | 7 | 59 | 0.0 | 6.4 | 0.00 | 0.00 | 0.10 | 83 | 990.1 |
| 20260501235710 | 7 | 350 | 1.6 | 8.0 | 0.00 | 0.00 | 0.10 | 82 | 989.8 |
| 20260501235129 | 7 | 223 | 1.6 | 11.3 | 0.00 | 0.00 | 0.10 | 81 | 989.8 |
| 20260501234529 | 8 | 121 | 3.2 | 9.7 | 0.00 | 0.00 | 0.10 | 81 | 989.5 |
| 20260501233932 | 8 | 79 | 1.6 | 14.5 | 0.00 | 0.00 | 0.10 | 79 | 989.5 |
| 20260501233330 | 8 | 354 | 4.8 | 22.5 | 0.00 | 0.00 | 0.10 | 78 | 989.5 |
| 20260501232119 | 8 | 182 | 6.4 | 12.9 | 0.00 | 0.00 | 0.10 | 77 | 989.5 |
| 20260501231520 | 8 | 324 | 3.2 | 17.7 | 0.00 | 0.00 | 0.10 | 77 | 989.5 |
| 20260501230915 | 9 | 234 | 22.5 | 22.5 | 0.00 | 0.00 | 0.10 | 78 | 989.5 |
| 20260501230339 | 9 | 219 | 6.4 | 11.3 | 0.00 | 0.00 | 0.10 | 79 | 989.5 |
| 20260501225745 | 9 | 351 | 8.0 | 19.3 | 0.00 | 0.00 | 0.10 | 78 | 989.5 |
| 20260501224521 | 10 | 198 | 4.8 | 14.5 | 0.00 | 0.00 | 0.10 | 77 | 989.1 |
| 20260501223953 | 10 | 173 | 0.0 | 12.9 | 0.00 | 0.00 | 0.10 | 76 | 989.5 |
| 20260501223351 | 9 | 195 | 8.0 | 14.5 | 0.00 | 0.00 | 0.10 | 77 | 989.1 |
| 20260501222716 | 10 | 22 | 6.4 | 32.2 | 0.00 | 0.00 | 0.10 | 75 | 988.8 |
| 20260501222115 | 10 | 184 | 6.4 | 14.5 | 0.00 | 0.00 | 0.10 | 76 | 988.8 |
| 20260501221520 | 10 | 199 | 3.2 | 17.7 | 0.00 | 0.00 | 0.10 | 75 | 988.8 |
| 20260501220340 | 10 | 59 | 11.3 | 20.9 | 0.00 | 0.00 | 0.10 | 74 | 988.8 |
| 20260501215719 | 10 | 248 | 4.8 | 16.1 | 0.00 | 0.00 | 0.10 | 75 | 988.8 |
| 20260501215129 | 10 | 228 | 8.0 | 19.3 | 0.00 | 0.00 | 0.10 | 78 | 988.8 |
| 20260501214546 | 10 | 51 | 8.0 | 16.1 | 0.00 | 0.00 | 0.10 | 76 | 988.8 |
| 20260501213923 | 11 | 68 | 4.8 | 25.7 | 0.00 | 0.00 | 0.10 | 74 | 988.4 |
| 20260501213324 | 11 | 199 | 4.8 | 20.9 | 0.00 | 0.00 | 0.10 | 75 | 988.1 |
| 20260501212738 | 11 | 355 | 3.2 | 19.3 | 0.00 | 0.00 | 0.10 | 74 | 988.1 |
| 20260501212141 | 12 | 329 | 3.2 | 30.6 | 0.00 | 0.00 | 0.10 | 71 | 987.8 |
| 20260501210942 | 13 | 19 | 8.0 | 25.7 | 0.00 | 0.00 | 0.10 | 69 | 987.8 |
| 20260501210334 | 12 | 345 | 3.2 | 12.9 | 0.00 | 0.00 | 0.10 | 71 | 987.8 |
| 20260501205152 | 13 | 214 | 6.4 | 22.5 | 0.00 | 0.00 | 0.10 | 71 | 987.1 |
| 20260501204536 | 12 | 228 | 14.5 | 20.9 | 0.00 | 0.00 | 0.10 | 73 | 987.1 |
| 20260501203941 | 13 | 320 | 3.2 | 8.0 | 0.00 | 0.00 | 0.10 | 77 | 987.1 |
| 20260501203329 | 13 | 219 | 3.2 | 12.9 | 0.00 | 0.00 | 0.10 | 79 | 987.1 |
| 20260501202716 | 12 | 196 | 3.2 | 6.4 | 0.00 | 0.00 | 0.10 | 80 | 987.1 |
| 20260501202122 | 12 | 197 | 3.2 | 11.3 | 0.00 | 0.00 | 0.10 | 80 | 986.7 |
| 20260501201536 | 12 | 219 | 3.2 | 11.3 | 0.00 | 0.00 | 0.10 | 82 | 986.7 |
| 20260501200947 | 12 | 151 | 3.2 | 6.4 | 0.00 | 0.00 | 0.10 | 82 | 987.1 |
| 20260501200349 | 12 | 180 | 4.8 | 8.0 | 0.00 | 0.00 | 0.10 | 83 | 987.1 |
| 20260501195727 | 12 | 20 | 1.6 | 6.4 | 0.00 | 0.00 | 0.10 | 89 | 987.4 |
| 20260501195125 | 12 | 67 | 4.8 | 8.0 | 0.00 | 0.00 | 0.10 | 89 | 987.4 |
| 20260501194547 | 12 | 238 | 3.2 | 9.7 | 0.00 | 0.00 | 0.10 | 90 | 987.4 |
| 20260501193934 | 11 | 183 | 4.8 | 6.4 | 0.00 | 0.00 | 0.10 | 91 | 987.8 |
| 20260501193314 | 10 | 135 | 3.2 | 4.8 | 0.00 | 0.00 | 0.10 | 94 | 987.8 |
| 20260501192719 | 10 | 185 | 0.0 | 4.8 | 0.00 | 0.00 | 0.10 | 94 | 987.8 |
| 20260501192139 | 10 | 199 | 0.0 | 6.4 | 0.00 | 0.00 | 0.10 | 94 | 987.8 |
| 20260501191517 | 10 | 5 | 3.2 | 4.8 | 0.00 | 0.00 | 0.10 | 93 | 987.8 |
| 20260501190942 | 10 | 208 | 3.2 | 8.0 | 0.00 | 0.00 | 0.10 | 92 | 987.8 |
| 20260501190351 | 10 | 162 | 0.0 | 3.2 | 0.00 | 0.00 | 0.10 | 94 | 987.8 |
| 20260501185727 | 10 | 164 | 0.0 | 4.8 | 0.00 | 0.00 | 0.08 | 93 | 987.8 |
| 20260501185114 | 10 | 160 | 0.0 | 6.4 | 0.00 | 0.00 | 0.08 | 93 | 987.8 |
| 20260501184538 | 10 | 206 | 1.6 | 14.5 | 0.00 | 0.00 | 0.08 | 91 | 987.8 |
| 20260501183947 | 10 | 34 | 6.4 | 8.0 | 0.00 | 0.00 | 0.08 | 90 | 987.4 |
| 20260501183330 | 10 | 191 | 4.8 | 6.4 | 0.00 | 0.00 | 0.08 | 90 | 987.8 |
| 20260501182719 | 10 | 148 | 3.2 | 3.2 | 0.00 | 0.00 | 0.08 | 91 | 987.8 |
| 20260501181520 | 10 | 28 | 0.0 | 6.4 | 0.00 | 0.00 | 0.05 | 91 | 987.4 |
| 20260501180926 | 10 | 191 | 0.0 | 4.8 | 0.00 | 0.00 | 0.05 | 92 | 987.4 |
| 20260501180335 | 10 | 157 | 4.8 | 16.1 | 0.00 | 0.00 | 0.05 | 90 | 987.4 |
| 20260501175130 | 10 | 26 | 0.0 | 3.2 | 0.00 | 0.00 | 0.05 | 91 | 987.4 |
| 20260501174538 | 10 | 173 | 0.0 | 4.8 | 0.00 | 0.00 | 0.05 | 90 | 987.4 |
| 20260501173944 | 11 | 164 | 3.2 | 6.4 | 0.00 | 0.00 | 0.05 | 89 | 987.1 |
| 20260501172714 | 11 | 142 | 0.0 | 3.2 | 0.00 | 0.00 | 0.03 | 88 | 987.4 |
| 20260501172116 | 11 | 150 | 1.6 | 3.2 | 0.00 | 0.00 | 0.03 | 87 | 987.1 |
| 20260501171540 | 11 | 166 | 3.2 | 3.2 | 0.00 | 0.00 | 0.03 | 88 | 987.1 |